Weather History for KBAD - November, 2012

Change the Weather History Date:

Friday, November 30, 2012

  Actual Average Record
Temperature  
Mean Temperature 54 °F -  
Max Temperature 68 °F 59 °F 77 °F (2014)
Min Temperature 40 °F 41 °F 26 °F (2013)
Degree Days  
Heating Degree Days 11    
Growing Degree Days 4 (Base 50)    
Moisture  
Dew Point 48 °F    
Average Humidity 77    
Maximum Humidity 88    
Minimum Humidity 62    
Precipitation  
Precipitation 0.00 in - - ()
Sea Level Pressure  
Sea Level Pressure 30.19 in    
Wind  
Wind Speed 7 mph (SSE)    
Max Wind Speed 10 mph    
Max Gust Speed -    
Visibility 10 miles    
Events      
Averages and records for this station are not official NWS values.
T = Trace of Precipitation, MM = Missing Value Source: NWS Daily Summary

Daily Weather History Graph

Daily Weather History Graph

Search for Another Location

Airport or City:

Trip Planner

Search our weather history database for the weather conditions in past years. The results will help you decide how hot, cold, wet, or windy it might be!

Date:

Astronomy

Nov. 30, 2012 Rise Set
Actual Time 6:58 AM CST 5:08 PM CST
Civil Twilight 6:31 AM CST 5:35 PM CST
Nautical Twilight 6:00 AM CST 6:06 PM CST
Astronomical Twilight 5:31 AM CST 6:35 PM CST
Moon 7:03 PM CST (11/30) 8:30 AM CST (11/30)
Length of Visible Light 11h 04m
Length of Day
10h 10m
Waning Gibbous, 96% of the Moon is Illuminated
Nov 30
Waning Gibbous
Dec 6
Last Quarter
Dec 13
New
Dec 19
First Quarter
Dec 28
Full

Hourly Weather History & Observations

Time (CST) Temp. Windchill Dew Point Humidity Pressure Visibility Wind Dir Wind Speed Gust Speed Precip Events Conditions
12:55 AM 43.3 °F 39.2 °F 33.6 °F 69% 30.22 in 10.0 mi SSE 6.9 mph - N/A   Clear
1:55 AM 40.5 °F 35.8 °F 34.2 °F 78% 30.22 in 10.0 mi SSE 6.9 mph - N/A   Clear
2:55 AM 41.7 °F 38.0 °F 35.2 °F 78% 30.21 in 10.0 mi SSE 5.8 mph - N/A   Clear
3:55 AM 41.7 °F 38.0 °F 35.8 °F 79% 30.20 in 10.0 mi SSE 5.8 mph - N/A   Clear
4:55 AM 42.1 °F 37.7 °F 36.1 °F 79% 30.20 in 10.0 mi SSE 6.9 mph - N/A   Clear
5:55 AM 44.1 °F 41.5 °F 37.8 °F 78% 30.21 in 10.0 mi SSE 4.6 mph - N/A   Scattered Clouds
6:15 AM 42.8 °F 38.6 °F 37.4 °F 81% 30.22 in 10.0 mi SSE 6.9 mph - N/A   Mostly Cloudy
6:55 AM 44.2 °F 39.7 °F 40.1 °F 85% 30.22 in 10.0 mi SSE 8.1 mph - N/A   Scattered Clouds
7:55 AM 47.1 °F - 41.7 °F 81% 30.24 in 10.0 mi SSE 6.9 mph - N/A   Clear
8:55 AM 50.9 °F - 45.3 °F 81% 30.25 in 10.0 mi SSE 9.2 mph - N/A   Overcast
9:55 AM 55.0 °F - 48.4 °F 78% 30.25 in 10.0 mi South 9.2 mph - N/A   Overcast
10:55 AM 58.8 °F - 50.4 °F 73% 30.24 in 10.0 mi SSE 8.1 mph - N/A   Overcast
11:55 AM 65.3 °F - 52.5 °F 63% 30.21 in 10.0 mi South 9.2 mph - N/A   Partly Cloudy
12:55 PM 67.8 °F - 54.7 °F 63% 30.17 in 10.0 mi SSE 6.9 mph - N/A   Overcast
1:55 PM 68.5 °F - 55.2 °F 62% 30.16 in 10.0 mi South 10.4 mph - N/A   Overcast
2:55 PM 68.0 °F - 56.5 °F 67% 30.14 in 10.0 mi South 9.2 mph - N/A   Mostly Cloudy
3:55 PM 67.6 °F - 56.8 °F 68% 30.14 in 10.0 mi SE 6.9 mph - N/A   Overcast
4:55 PM 65.3 °F - 56.1 °F 72% 30.13 in 10.0 mi SE 5.8 mph - N/A   Overcast
5:55 PM 63.3 °F - 56.5 °F 78% 30.14 in 10.0 mi Calm Calm - N/A   Overcast
6:55 PM 59.5 °F - 56.1 °F 88% 30.15 in 10.0 mi Calm Calm - N/A   Scattered Clouds
7:55 PM 60.1 °F - 55.6 °F 85% 30.16 in 10.0 mi Calm Calm - N/A   Overcast
8:55 PM 59.5 °F - 55.0 °F 85% 30.15 in 10.0 mi SSE 5.8 mph - N/A   Mostly Cloudy
9:55 PM 60.3 °F - 55.2 °F 83% 30.15 in 10.0 mi SSE 6.9 mph - N/A   Overcast
10:55 PM 61.7 °F - 56.3 °F 82% 30.17 in 10.0 mi South 6.9 mph - N/A   Overcast
11:55 PM 57.9 °F - 54.1 °F 87% 30.16 in 10.0 mi South 5.8 mph - N/A   Scattered Clouds